Time,TemperatureF,DewpointF,PressureIn,WindDirection,WindDirectionDegrees,WindSpeedMPH,WindSpeedGustMPH,Humidity,HourlyPrecipIn,Conditions,Clouds,dailyrainin,SoftwareType,DateUTC
2013-03-29 00:03:00,52.7,47.4,30.06,ESE,113,0.2,0.2,82,0.00,,,0.00,WUHU216HW,2013-03-29 07:03:00,
2013-03-29 00:08:00,52.7,47.4,30.06,ESE,120,0.2,0.2,82,0.00,,,0.00,WUHU216HW,2013-03-29 07:08:00,
2013-03-29 00:13:00,52.7,47.7,30.06,ESE,113,0.3,0.4,83,0.00,,,0.00,WUHU216HW,2013-03-29 07:13:00,
2013-03-29 00:18:00,52.9,47.6,30.06,ESE,113,0.4,0.4,82,0.00,,,0.00,WUHU216HW,2013-03-29 07:18:00,
2013-03-29 00:23:00,52.9,47.6,30.06,North,0,0.0,0.0,82,0.00,,,0.00,WUHU216HW,2013-03-29 07:23:00,
2013-03-29 00:28:00,52.7,47.4,30.06,North,0,0.0,0.0,82,0.00,,,0.00,WUHU216HW,2013-03-29 07:28:00,
2013-03-29 00:33:00,52.9,47.6,30.07,SE,135,0.2,0.2,82,0.00,,,0.00,WUHU216HW,2013-03-29 07:33:00,
2013-03-29 00:38:00,52.9,47.6,30.07,North,0,0.0,0.0,82,0.00,,,0.00,WUHU216HW,2013-03-29 07:38:00,
2013-03-29 00:43:00,52.9,47.6,30.07,North,0,0.0,0.0,82,0.00,,,0.00,WUHU216HW,2013-03-29 07:43:00,
2013-03-29 00:48:00,52.7,47.4,30.07,North,0,0.0,0.0,82,0.00,,,0.00,WUHU216HW,2013-03-29 07:48:00,
2013-03-29 00:53:00,52.6,47.5,30.07,North,0,0.0,0.0,83,0.00,,,0.00,WUHU216HW,2013-03-29 07:53:00,
2013-03-29 00:59:00,52.4,47.3,30.06,North,0,0.0,0.0,83,0.00,,,0.00,WUHU216HW,2013-03-29 07:59:00,
2013-03-29 01:04:00,52.2,47.5,30.06,North,0,0.0,0.0,84,0.00,,,0.00,WUHU216HW,2013-03-29 08:04:00,
2013-03-29 01:09:00,52.2,47.2,30.06,North,0,0.0,0.0,83,0.00,,,0.00,WUHU216HW,2013-03-29 08:09:00,
2013-03-29 01:14:00,52.2,47.2,30.07,North,0,0.0,0.0,83,0.00,,,0.00,WUHU216HW,2013-03-29 08:14:00,
2013-03-29 01:19:00,52.2,47.2,30.06,North,0,0.0,0.0,83,0.00,,,0.00,WUHU216HW,2013-03-29 08:19:00,
2013-03-29 01:24:00,52.2,47.2,30.06,North,0,0.0,0.0,83,0.00,,,0.00,WUHU216HW,2013-03-29 08:24:00,
2013-03-29 01:29:00,52.0,47.0,30.06,North,0,0.0,0.0,83,0.00,,,0.00,WUHU216HW,2013-03-29 08:29:00,
2013-03-29 01:34:00,52.2,47.5,30.06,North,0,0.0,0.0,84,0.00,,,0.00,WUHU216HW,2013-03-29 08:34:00,
2013-03-29 01:39:00,52.7,47.7,30.06,North,0,0.0,0.0,83,0.00,,,0.00,WUHU216HW,2013-03-29 08:39:00,
2013-03-29 01:44:00,52.7,47.4,30.06,North,0,0.0,0.0,82,0.00,,,0.00,WUHU216HW,2013-03-29 08:44:00,
2013-03-29 01:49:00,52.7,47.4,30.06,North,0,0.0,0.0,82,0.00,,,0.00,WUHU216HW,2013-03-29 08:49:00,
2013-03-29 01:54:00,52.4,47.1,30.06,North,0,0.0,0.0,82,0.00,,,0.00,WUHU216HW,2013-03-29 08:54:00,
2013-03-29 01:59:00,52.0,46.7,30.06,North,0,0.0,0.0,82,0.00,,,0.00,WUHU216HW,2013-03-29 08:59:00,
2013-03-29 02:04:00,51.7,46.4,30.07,North,0,0.0,0.0,82,0.00,,,0.00,WUHU216HW,2013-03-29 09:04:00,
2013-03-29 02:09:00,51.7,46.4,30.06,North,0,0.0,0.0,82,0.00,,,0.00,WUHU216HW,2013-03-29 09:09:00,
2013-03-29 02:14:00,51.7,46.4,30.07,North,0,0.0,0.0,82,0.00,,,0.00,WUHU216HW,2013-03-29 09:14:00,
2013-03-29 02:19:00,51.7,46.4,30.06,North,0,0.0,0.0,82,0.00,,,0.00,WUHU216HW,2013-03-29 09:19:00,
2013-03-29 02:24:00,51.5,46.2,30.06,North,0,0.0,0.0,82,0.00,,,0.00,WUHU216HW,2013-03-29 09:24:00,
2013-03-29 02:29:00,51.1,45.8,30.07,North,0,0.2,0.4,82,0.00,,,0.00,WUHU216HW,2013-03-29 09:29:00,
2013-03-29 02:34:00,50.8,45.5,30.07,North,0,0.0,0.0,82,0.00,,,0.00,WUHU216HW,2013-03-29 09:34:00,
2013-03-29 02:39:00,50.6,45.5,30.07,NNW,338,0.4,0.4,83,0.00,,,0.00,WUHU216HW,2013-03-29 09:39:00,
2013-03-29 02:44:00,50.4,45.4,30.07,NNW,338,0.3,0.4,83,0.00,,,0.00,WUHU216HW,2013-03-29 09:44:00,
2013-03-29 02:49:00,50.0,45.4,30.07,North,0,0.0,0.0,84,0.00,,,0.00,WUHU216HW,2013-03-29 09:49:00,
2013-03-29 02:54:00,50.0,45.4,30.07,NE,45,0.2,0.2,84,0.00,,,0.00,WUHU216HW,2013-03-29 09:54:00,
2013-03-29 02:59:00,49.9,45.5,30.07,North,0,0.0,0.0,85,0.00,,,0.00,WUHU216HW,2013-03-29 09:59:00,
2013-03-29 03:04:00,49.9,45.5,30.06,North,0,0.0,0.0,85,0.00,,,0.00,WUHU216HW,2013-03-29 10:04:00,
2013-03-29 03:09:00,49.9,45.5,30.06,North,0,0.0,0.0,85,0.00,,,0.00,WUHU216HW,2013-03-29 10:09:00,
2013-03-29 03:14:00,49.5,44.5,30.06,East,90,0.4,0.4,83,0.00,,,0.00,WUHU216HW,2013-03-29 10:14:00,
2013-03-29 03:19:00,49.3,44.3,30.07,East,90,0.3,0.4,83,0.00,,,0.00,WUHU216HW,2013-03-29 10:19:00,
2013-03-29 03:24:00,49.1,44.1,30.06,North,0,0.0,0.0,83,0.00,,,0.00,WUHU216HW,2013-03-29 10:24:00,
2013-03-29 03:29:00,49.0,44.0,30.06,North,0,0.0,0.0,83,0.00,,,0.00,WUHU216HW,2013-03-29 10:29:00,
2013-03-29 03:34:00,49.0,44.0,30.06,North,0,0.0,0.0,83,0.00,,,0.00,WUHU216HW,2013-03-29 10:34:00,
2013-03-29 03:39:00,48.6,43.9,30.06,North,0,0.0,0.0,84,0.00,,,0.00,WUHU216HW,2013-03-29 10:39:00,
2013-03-29 03:44:00,48.6,43.9,30.06,North,0,0.0,0.0,84,0.00,,,0.00,WUHU216HW,2013-03-29 10:44:00,
2013-03-29 03:49:00,48.4,43.7,30.06,North,0,0.0,0.0,84,0.00,,,0.00,WUHU216HW,2013-03-29 10:49:00,
2013-03-29 03:54:00,48.2,43.6,30.05,North,0,0.0,0.0,84,0.00,,,0.00,WUHU216HW,2013-03-29 10:54:00,
2013-03-29 03:59:00,48.1,43.5,30.06,North,0,0.0,0.0,84,0.00,,,0.00,WUHU216HW,2013-03-29 10:59:00,
2013-03-29 04:04:00,47.9,43.6,30.06,North,0,0.0,0.0,85,0.00,,,0.00,WUHU216HW,2013-03-29 11:04:00,
2013-03-29 04:09:00,48.1,43.7,30.05,North,0,0.0,0.0,85,0.00,,,0.00,WUHU216HW,2013-03-29 11:09:00,
2013-03-29 04:14:00,48.1,43.7,30.05,NW,311,0.8,1.1,85,0.00,,,0.00,WUHU216HW,2013-03-29 11:14:00,
2013-03-29 04:19:00,48.2,43.9,30.05,North,0,0.0,0.0,85,0.00,,,0.00,WUHU216HW,2013-03-29 11:19:00,
2013-03-29 04:24:00,48.2,43.9,30.05,West,275,0.5,0.9,85,0.00,,,0.00,WUHU216HW,2013-03-29 11:24:00,
2013-03-29 04:29:00,48.1,43.7,30.05,NW,309,0.3,0.4,85,0.00,,,0.00,WUHU216HW,2013-03-29 11:29:00,
2013-03-29 04:34:00,47.9,43.6,30.05,North,0,0.0,0.0,85,0.00,,,0.00,WUHU216HW,2013-03-29 11:34:00,
2013-03-29 04:39:00,47.5,43.2,30.06,North,0,0.0,0.0,85,0.00,,,0.00,WUHU216HW,2013-03-29 11:39:00,
2013-03-29 04:44:00,47.5,43.2,30.05,North,0,0.0,0.0,85,0.00,,,0.00,WUHU216HW,2013-03-29 11:44:00,
2013-03-29 04:49:00,47.5,43.2,30.05,NW,315,0.4,0.9,85,0.00,,,0.00,WUHU216HW,2013-03-29 11:49:00,
2013-03-29 04:54:00,47.2,42.9,30.05,North,0,0.0,0.0,85,0.00,,,0.00,WUHU216HW,2013-03-29 11:54:00,
2013-03-29 04:59:00,47.2,42.9,30.05,North,0,0.0,0.0,85,0.00,,,0.00,WUHU216HW,2013-03-29 11:59:00,
2013-03-29 05:04:00,47.2,42.9,30.05,North,0,0.0,0.0,85,0.00,,,0.00,WUHU216HW,2013-03-29 12:04:00,
2013-03-29 05:09:00,47.2,42.9,30.05,SE,135,0.3,0.4,85,0.00,,,0.00,WUHU216HW,2013-03-29 12:09:00,
2013-03-29 05:14:00,47.0,42.8,30.05,North,0,0.0,0.0,85,0.00,,,0.00,WUHU216HW,2013-03-29 12:14:00,
2013-03-29 05:19:00,46.6,42.4,30.05,North,0,0.0,0.0,85,0.00,,,0.00,WUHU216HW,2013-03-29 12:19:00,
2013-03-29 05:24:00,46.4,42.5,30.05,SSW,196,0.3,0.9,86,0.00,,,0.00,WUHU216HW,2013-03-29 12:24:00,
2013-03-29 05:29:00,46.4,42.5,30.06,SSE,166,0.5,1.1,86,0.00,,,0.00,WUHU216HW,2013-03-29 12:29:00,
2013-03-29 05:34:00,46.4,42.5,30.06,SSW,202,0.3,0.4,86,0.00,,,0.00,WUHU216HW,2013-03-29 12:34:00,
2013-03-29 05:39:00,46.4,42.5,30.06,East,97,0.2,0.2,86,0.00,,,0.00,WUHU216HW,2013-03-29 12:39:00,
2013-03-29 05:44:00,46.1,42.8,30.07,ESE,104,0.4,0.7,88,0.00,,,0.00,WUHU216HW,2013-03-29 12:44:00,
2013-03-29 05:49:00,46.3,42.7,30.07,ESE,118,0.4,0.7,87,0.00,,,0.00,WUHU216HW,2013-03-29 12:49:00,
2013-03-29 05:54:00,46.3,42.7,30.07,ESE,114,0.3,0.4,87,0.00,,,0.00,WUHU216HW,2013-03-29 12:54:00,
2013-03-29 05:59:00,46.1,42.8,30.07,ENE,70,0.4,0.7,88,0.00,,,0.00,WUHU216HW,2013-03-29 12:59:00,
2013-03-29 06:04:00,45.9,42.3,30.07,ENE,75,0.3,0.4,87,0.00,,,0.00,WUHU216HW,2013-03-29 13:04:00,
2013-03-29 06:09:00,46.1,42.8,30.07,North,0,0.0,0.0,88,0.00,,,0.00,WUHU216HW,2013-03-29 13:09:00,
2013-03-29 06:14:00,46.4,42.9,30.07,North,0,0.0,0.0,87,0.00,,,0.00,WUHU216HW,2013-03-29 13:14:00,
2013-03-29 06:19:00,46.4,42.9,30.07,North,0,0.0,0.0,87,0.00,,,0.00,WUHU216HW,2013-03-29 13:19:00,
2013-03-29 06:24:00,46.3,42.7,30.07,North,0,0.0,0.0,87,0.00,,,0.00,WUHU216HW,2013-03-29 13:24:00,
2013-03-29 06:29:00,46.4,42.9,30.07,North,0,0.0,0.0,87,0.00,,,0.00,WUHU216HW,2013-03-29 13:29:00,
2013-03-29 06:34:00,46.4,43.5,30.07,East,79,0.3,0.4,89,0.00,,,0.00,WUHU216HW,2013-03-29 13:34:00,
2013-03-29 06:39:00,46.8,43.8,30.07,ENE,73,0.2,0.2,89,0.00,,,0.00,WUHU216HW,2013-03-29 13:39:00,
2013-03-29 06:44:00,47.2,44.2,30.07,North,0,0.0,0.0,89,0.00,,,0.00,WUHU216HW,2013-03-29 13:44:00,
2013-03-29 06:49:00,47.5,44.5,30.07,ENE,68,0.2,0.2,89,0.00,,,0.00,WUHU216HW,2013-03-29 13:49:00,
2013-03-29 06:54:00,47.9,44.6,30.08,North,0,0.0,0.0,88,0.00,,,0.00,WUHU216HW,2013-03-29 13:54:00,
2013-03-29 06:59:00,47.9,44.2,30.08,North,0,0.0,0.0,87,0.00,,,0.00,WUHU216HW,2013-03-29 13:59:00,
2013-03-29 07:04:00,47.9,44.2,30.08,North,0,0.0,0.0,87,0.00,,,0.00,WUHU216HW,2013-03-29 14:04:00,
2013-03-29 07:09:00,47.9,44.2,30.08,North,0,0.0,0.0,87,0.00,,,0.00,WUHU216HW,2013-03-29 14:09:00,
2013-03-29 07:14:00,49.0,45.3,30.09,North,0,0.0,0.0,87,0.00,,,0.00,WUHU216HW,2013-03-29 14:14:00,
2013-03-29 07:19:00,50.4,46.3,30.08,North,0,0.0,0.0,86,0.00,,,0.00,WUHU216HW,2013-03-29 14:19:00,
2013-03-29 07:24:00,50.6,46.2,30.09,North,0,0.0,0.0,85,0.00,,,0.00,WUHU216HW,2013-03-29 14:24:00,
2013-03-29 07:29:00,50.4,46.0,30.09,North,0,0.0,0.0,85,0.00,,,0.00,WUHU216HW,2013-03-29 14:29:00,
2013-03-29 07:34:00,50.6,46.2,30.09,North,0,0.0,0.0,85,0.00,,,0.00,WUHU216HW,2013-03-29 14:34:00,
2013-03-29 07:39:00,50.8,46.4,30.09,North,0,0.0,0.0,85,0.00,,,0.00,WUHU216HW,2013-03-29 14:39:00,
2013-03-29 07:44:00,51.1,46.7,30.09,North,0,0.0,0.0,85,0.00,,,0.00,WUHU216HW,2013-03-29 14:44:00,
2013-03-29 07:49:00,51.5,47.3,30.09,North,0,0.0,0.0,86,0.00,,,0.00,WUHU216HW,2013-03-29 14:49:00,
2013-03-29 07:54:00,52.0,47.9,30.09,North,0,0.0,0.0,86,0.00,,,0.00,WUHU216HW,2013-03-29 14:54:00,
2013-03-29 07:59:00,52.6,48.2,30.09,North,0,0.0,0.0,85,0.00,,,0.00,WUHU216HW,2013-03-29 14:59:00,
2013-03-29 08:04:00,53.3,48.9,30.09,ENE,74,0.3,0.7,85,0.00,,,0.00,WUHU216HW,2013-03-29 15:04:00,
2013-03-29 08:09:00,53.8,49.4,30.09,East,80,0.3,0.7,85,0.00,,,0.00,WUHU216HW,2013-03-29 15:09:00,
2013-03-29 08:14:00,54.5,49.8,30.09,East,90,0.2,0.2,84,0.00,,,0.00,WUHU216HW,2013-03-29 15:14:00,
2013-03-29 08:19:00,55.6,50.8,30.09,North,0,0.0,0.0,84,0.00,,,0.00,WUHU216HW,2013-03-29 15:19:00,
2013-03-29 08:24:00,56.5,51.7,30.09,North,0,0.0,0.0,84,0.00,,,0.00,WUHU216HW,2013-03-29 15:24:00,
2013-03-29 08:29:00,57.4,52.3,30.09,ENE,68,0.2,0.2,83,0.00,,,0.00,WUHU216HW,2013-03-29 15:29:00,
2013-03-29 08:34:00,58.3,53.2,30.09,ESE,108,0.5,2.0,83,0.00,,,0.00,WUHU216HW,2013-03-29 15:34:00,
2013-03-29 08:39:00,59.4,53.7,30.09,East,91,0.6,1.1,81,0.00,,,0.00,WUHU216HW,2013-03-29 15:39:00,
2013-03-29 08:44:00,60.1,53.6,30.09,SE,129,0.7,1.1,79,0.00,,,0.00,WUHU216HW,2013-03-29 15:44:00,
2013-03-29 08:49:00,60.8,54.0,30.10,ESE,122,0.8,1.6,78,0.00,,,0.00,WUHU216HW,2013-03-29 15:49:00,
2013-03-29 08:54:00,61.6,54.3,30.10,SE,146,0.5,0.9,77,0.00,,,0.00,WUHU216HW,2013-03-29 15:54:00,
2013-03-29 08:59:00,62.3,54.2,30.10,ESE,115,0.7,1.8,75,0.00,,,0.00,WUHU216HW,2013-03-29 15:59:00,
2013-03-29 09:04:00,62.8,54.7,30.09,SW,222,0.9,1.8,75,0.00,,,0.00,WUHU216HW,2013-03-29 16:04:00,
2013-03-29 09:09:00,63.4,54.2,30.10,SSW,202,0.9,2.0,72,0.00,,,0.00,WUHU216HW,2013-03-29 16:09:00,
2013-03-29 09:15:00,64.1,54.5,30.09,SE,125,1.0,1.6,71,0.00,,,0.00,WUHU216HW,2013-03-29 16:15:00,
2013-03-29 09:20:00,64.4,54.5,30.09,SE,142,0.7,1.6,70,0.00,,,0.00,WUHU216HW,2013-03-29 16:20:00,
2013-03-29 09:25:00,65.2,54.7,30.09,SSW,202,1.0,1.6,69,0.00,,,0.00,WUHU216HW,2013-03-29 16:25:00,
2013-03-29 09:30:00,65.7,54.8,30.09,South,177,1.3,2.5,68,0.00,,,0.00,WUHU216HW,2013-03-29 16:30:00,
2013-03-29 09:35:00,66.2,55.4,30.09,SSW,194,1.6,2.0,68,0.00,,,0.00,WUHU216HW,2013-03-29 16:35:00,
2013-03-29 09:40:00,66.8,54.6,30.09,SW,216,1.6,3.4,65,0.00,,,0.00,WUHU216HW,2013-03-29 16:40:00,
2013-03-29 09:45:00,67.3,54.3,30.09,South,186,1.5,2.5,63,0.00,,,0.00,WUHU216HW,2013-03-29 16:45:00,
2013-03-29 09:50:00,67.7,54.2,30.09,SW,229,1.1,2.7,62,0.00,,,0.00,WUHU216HW,2013-03-29 16:50:00,
2013-03-29 09:55:00,68.0,54.6,30.09,South,180,1.7,3.1,62,0.00,,,0.00,WUHU216HW,2013-03-29 16:55:00,
2013-03-29 10:00:00,68.4,52.6,30.09,SSE,164,1.1,2.5,57,0.00,,,0.00,WUHU216HW,2013-03-29 17:00:00,
2013-03-29 10:05:00,68.8,53.4,30.09,East,99,0.6,1.8,58,0.00,,,0.00,WUHU216HW,2013-03-29 17:05:00,
2013-03-29 10:10:00,69.1,54.7,30.08,South,170,1.4,2.9,60,0.00,,,0.00,WUHU216HW,2013-03-29 17:10:00,
2013-03-29 10:15:00,69.7,53.3,30.08,South,191,1.3,3.4,56,0.00,,,0.00,WUHU216HW,2013-03-29 17:15:00,
2013-03-29 10:20:00,70.0,54.1,30.08,South,185,1.6,3.1,57,0.00,,,0.00,WUHU216HW,2013-03-29 17:20:00,
2013-03-29 10:25:00,70.6,54.5,30.08,SSW,197,1.7,2.5,57,0.00,,,0.00,WUHU216HW,2013-03-29 17:25:00,
2013-03-29 10:30:00,70.9,54.9,30.08,SE,140,1.1,2.0,57,0.00,,,0.00,WUHU216HW,2013-03-29 17:30:00,
2013-03-29 10:35:00,71.3,55.3,30.08,South,183,1.6,3.8,57,0.00,,,0.00,WUHU216HW,2013-03-29 17:35:00,
2013-03-29 10:40:00,71.8,55.7,30.09,SW,235,1.7,3.8,57,0.00,,,0.00,WUHU216HW,2013-03-29 17:40:00,
2013-03-29 10:45:00,72.0,55.9,30.08,South,179,2.2,4.9,57,0.00,,,0.00,WUHU216HW,2013-03-29 17:45:00,
2013-03-29 10:50:00,72.4,55.7,30.08,WSW,248,1.0,2.0,56,0.00,,,0.00,WUHU216HW,2013-03-29 17:50:00,
2013-03-29 10:55:00,72.5,56.3,30.08,SSW,199,2.0,3.4,57,0.00,,,0.00,WUHU216HW,2013-03-29 17:55:00,
2013-03-29 11:00:00,72.7,56.0,30.09,West,263,1.7,3.4,56,0.00,,,0.00,WUHU216HW,2013-03-29 18:00:00,
2013-03-29 11:05:00,73.1,56.3,30.09,SW,225,1.9,3.8,56,0.00,,,0.00,WUHU216HW,2013-03-29 18:05:00,
2013-03-29 11:10:00,72.9,55.7,30.08,SSW,193,2.2,4.9,55,0.00,,,0.00,WUHU216HW,2013-03-29 18:10:00,
2013-03-29 11:15:00,72.7,56.0,30.08,WNW,283,1.5,2.7,56,0.00,,,0.00,WUHU216HW,2013-03-29 18:15:00,
2013-03-29 11:20:00,73.1,56.9,30.08,WSW,240,1.6,4.0,57,0.00,,,0.00,WUHU216HW,2013-03-29 18:20:00,
2013-03-29 11:25:00,73.1,55.8,30.08,WSW,251,1.8,4.7,55,0.00,,,0.00,WUHU216HW,2013-03-29 18:25:00,
2013-03-29 11:30:00,73.1,56.3,30.08,West,260,1.5,4.3,56,0.00,,,0.00,WUHU216HW,2013-03-29 18:30:00,
2013-03-29 11:35:00,73.3,56.0,30.09,West,275,2.2,5.1,55,0.00,,,0.00,WUHU216HW,2013-03-29 18:35:00,
2013-03-29 11:40:00,73.6,56.3,30.08,WNW,282,1.3,3.8,55,0.00,,,0.00,WUHU216HW,2013-03-29 18:40:00,
2013-03-29 11:45:00,73.6,56.9,30.08,WSW,254,1.8,3.1,56,0.00,,,0.00,WUHU216HW,2013-03-29 18:45:00,
2013-03-29 11:50:00,74.0,55.2,30.08,SW,217,1.5,3.4,52,0.00,,,0.00,WUHU216HW,2013-03-29 18:50:00,
2013-03-29 11:55:00,74.0,56.2,30.08,WSW,240,2.6,4.3,54,0.00,,,0.00,WUHU216HW,2013-03-29 18:55:00,
2013-03-29 12:00:00,74.3,56.5,30.08,SW,222,2.0,4.9,54,0.00,,,0.00,WUHU216HW,2013-03-29 19:00:00,
2013-03-29 12:05:00,74.7,56.4,30.08,SSW,199,1.8,3.6,53,0.00,,,0.00,WUHU216HW,2013-03-29 19:05:00,
2013-03-29 12:10:00,75.1,57.2,30.08,WNW,292,2.3,4.7,54,0.00,,,0.00,WUHU216HW,2013-03-29 19:10:00,
2013-03-29 12:15:00,75.2,58.0,30.08,SSW,194,2.4,3.8,55,0.00,,,0.00,WUHU216HW,2013-03-29 19:15:00,
2013-03-29 12:20:00,75.8,57.0,30.08,South,178,2.3,4.0,52,0.00,,,0.00,WUHU216HW,2013-03-29 19:20:00,
2013-03-29 12:25:00,75.8,57.0,30.07,SSE,154,1.7,4.5,52,0.00,,,0.00,WUHU216HW,2013-03-29 19:25:00,
2013-03-29 12:30:00,76.0,57.1,30.07,SSW,206,1.7,2.7,52,0.00,,,0.00,WUHU216HW,2013-03-29 19:30:00,
2013-03-29 12:35:00,76.0,57.1,30.07,SSW,212,1.8,4.0,52,0.00,,,0.00,WUHU216HW,2013-03-29 19:35:00,
2013-03-29 12:40:00,75.8,55.4,30.07,WSW,240,1.4,3.1,49,0.00,,,0.00,WUHU216HW,2013-03-29 19:40:00,
2013-03-29 12:45:00,75.8,57.0,30.06,South,189,1.7,2.9,52,0.00,,,0.00,WUHU216HW,2013-03-29 19:45:00,
2013-03-29 12:50:00,76.5,56.0,30.06,SW,218,1.5,3.1,49,0.00,,,0.00,WUHU216HW,2013-03-29 19:50:00,
2013-03-29 12:55:00,76.0,54.3,30.06,ENE,66,1.1,2.5,47,0.00,,,0.00,WUHU216HW,2013-03-29 19:55:00,
2013-03-29 13:00:00,76.0,55.4,30.06,SSW,210,1.3,3.1,49,0.00,,,0.00,WUHU216HW,2013-03-29 20:00:00,
2013-03-29 13:05:00,76.5,54.1,30.06,ESE,113,1.8,3.1,46,0.00,,,0.00,WUHU216HW,2013-03-29 20:05:00,
2013-03-29 13:10:00,76.7,55.5,30.05,SSE,164,2.1,3.8,48,0.00,,,0.00,WUHU216HW,2013-03-29 20:10:00,
2013-03-29 13:15:00,77.2,54.2,30.05,SE,133,1.4,2.5,45,0.00,,,0.00,WUHU216HW,2013-03-29 20:15:00,
2013-03-29 13:20:00,77.8,54.6,30.05,SE,137,1.8,3.6,45,0.00,,,0.00,WUHU216HW,2013-03-29 20:20:00,
2013-03-29 13:25:00,78.5,54.7,30.05,South,183,1.6,2.5,44,0.00,,,0.00,WUHU216HW,2013-03-29 20:25:00,
2013-03-29 13:30:00,78.5,54.7,30.05,ESE,110,0.9,1.8,44,0.00,,,0.00,WUHU216HW,2013-03-29 20:30:00,
2013-03-29 13:35:00,78.3,54.6,30.05,WSW,256,1.5,2.9,44,0.00,,,0.00,WUHU216HW,2013-03-29 20:35:00,
2013-03-29 13:40:00,78.5,55.9,30.05,SW,223,1.8,3.1,46,0.00,,,0.00,WUHU216HW,2013-03-29 20:40:00,
2013-03-29 13:45:00,78.7,55.4,30.04,SSW,196,2.4,4.9,45,0.00,,,0.00,WUHU216HW,2013-03-29 20:45:00,
2013-03-29 13:50:00,79.0,55.2,30.04,West,272,2.4,4.3,44,0.00,,,0.00,WUHU216HW,2013-03-29 20:50:00,
2013-03-29 13:55:00,79.0,55.2,30.04,WNW,301,2.3,5.4,44,0.00,,,0.00,WUHU216HW,2013-03-29 20:55:00,
2013-03-29 14:00:00,78.8,53.2,30.04,SW,230,0.8,2.0,41,0.00,,,0.00,WUHU216HW,2013-03-29 21:00:00,
2013-03-29 14:05:00,78.8,53.8,30.04,WSW,238,2.9,6.0,42,0.00,,,0.00,WUHU216HW,2013-03-29 21:05:00,
2013-03-29 14:10:00,79.4,54.9,30.04,WNW,287,2.4,6.0,43,0.00,,,0.00,WUHU216HW,2013-03-29 21:10:00,
2013-03-29 14:15:00,79.6,52.5,30.03,SSW,208,0.9,1.8,39,0.00,,,0.00,WUHU216HW,2013-03-29 21:15:00,
2013-03-29 14:20:00,79.6,53.8,30.03,West,263,1.5,2.5,41,0.00,,,0.00,WUHU216HW,2013-03-29 21:20:00,
2013-03-29 14:25:00,79.4,54.3,30.02,SW,225,1.8,4.0,42,0.00,,,0.00,WUHU216HW,2013-03-29 21:25:00,
2013-03-29 14:30:00,79.6,53.2,30.02,SSE,150,2.3,5.4,40,0.00,,,0.00,WUHU216HW,2013-03-29 21:30:00,
2013-03-29 14:35:00,79.7,54.6,30.02,West,274,1.7,3.8,42,0.00,,,0.00,WUHU216HW,2013-03-29 21:35:00,
2013-03-29 14:40:00,79.9,54.2,30.02,WSW,251,1.8,4.5,41,0.00,,,0.00,WUHU216HW,2013-03-29 21:40:00,
2013-03-29 14:45:00,80.1,49.9,30.02,WNW,301,2.8,5.6,35,0.00,,,0.00,WUHU216HW,2013-03-29 21:45:00,
2013-03-29 14:50:00,80.1,48.2,30.01,NW,318,2.2,4.3,33,0.00,,,0.00,WUHU216HW,2013-03-29 21:50:00,
2013-03-29 14:55:00,79.9,52.0,30.01,North,358,1.3,4.3,38,0.00,,,0.00,WUHU216HW,2013-03-29 21:55:00,
2013-03-29 15:00:00,80.3,53.1,30.00,SE,135,1.4,3.8,39,0.00,,,0.00,WUHU216HW,2013-03-29 22:00:00,
2013-03-29 15:05:00,80.3,50.0,30.00,NW,326,1.3,4.0,35,0.00,,,0.00,WUHU216HW,2013-03-29 22:05:00,
2013-03-29 15:10:00,80.5,48.6,30.00,NW,307,3.0,5.8,33,0.00,,,0.00,WUHU216HW,2013-03-29 22:10:00,
2013-03-29 15:15:00,80.6,48.8,30.01,WNW,286,2.1,4.0,33,0.00,,,0.00,WUHU216HW,2013-03-29 22:15:00,
2013-03-29 15:20:00,80.8,49.7,30.01,WNW,298,3.0,6.3,34,0.00,,,0.00,WUHU216HW,2013-03-29 22:20:00,
2013-03-29 15:25:00,81.2,48.4,30.01,NW,311,2.2,3.6,32,0.00,,,0.00,WUHU216HW,2013-03-29 22:25:00,
2013-03-29 15:30:00,81.0,49.9,30.00,WNW,284,1.6,3.4,34,0.00,,,0.00,WUHU216HW,2013-03-29 22:30:00,
2013-03-29 15:35:00,81.0,49.9,30.00,WNW,291,3.4,6.9,34,0.00,,,0.00,WUHU216HW,2013-03-29 22:35:00,
2013-03-29 15:40:00,81.4,47.8,30.00,WNW,288,2.6,5.4,31,0.00,,,0.00,WUHU216HW,2013-03-29 22:40:00,
2013-03-29 15:45:00,81.2,48.4,29.99,NW,325,1.4,3.8,32,0.00,,,0.00,WUHU216HW,2013-03-29 22:45:00,
2013-03-29 15:50:00,81.0,50.6,29.99,WNW,288,2.1,3.6,35,0.00,,,0.00,WUHU216HW,2013-03-29 22:50:00,
2013-03-29 15:55:00,81.4,50.1,29.99,WNW,289,2.4,4.3,34,0.00,,,0.00,WUHU216HW,2013-03-29 22:55:00,
2013-03-29 16:00:00,81.7,49.7,29.99,NW,311,2.6,5.1,33,0.00,,,0.00,WUHU216HW,2013-03-29 23:00:00,
2013-03-29 16:05:00,81.4,49.3,29.99,WNW,298,1.4,3.6,33,0.00,,,0.00,WUHU216HW,2013-03-29 23:05:00,
2013-03-29 16:10:00,81.5,51.1,29.99,WNW,287,1.7,3.4,35,0.00,,,0.00,WUHU216HW,2013-03-29 23:10:00,
2013-03-29 16:15:00,81.7,50.4,29.99,WNW,303,3.2,4.7,34,0.00,,,0.00,WUHU216HW,2013-03-29 23:15:00,
2013-03-29 16:20:00,81.5,49.5,29.99,NW,312,3.8,6.0,33,0.00,,,0.00,WUHU216HW,2013-03-29 23:20:00,
2013-03-29 16:25:00,81.2,48.4,29.99,NW,321,1.8,3.6,32,0.00,,,0.00,WUHU216HW,2013-03-29 23:25:00,
2013-03-29 16:30:00,81.0,49.9,29.99,WNW,301,2.2,4.7,34,0.00,,,0.00,WUHU216HW,2013-03-29 23:30:00,
2013-03-29 16:35:00,81.4,50.1,29.99,West,276,1.7,3.8,34,0.00,,,0.00,WUHU216HW,2013-03-29 23:35:00,
2013-03-29 16:40:00,81.7,50.4,29.98,WNW,283,2.8,4.7,34,0.00,,,0.00,WUHU216HW,2013-03-29 23:40:00,
2013-03-29 16:45:00,81.7,50.4,29.98,WNW,289,2.7,5.4,34,0.00,,,0.00,WUHU216HW,2013-03-29 23:45:00,
2013-03-29 16:50:00,81.2,48.4,29.98,NW,318,1.8,4.0,32,0.00,,,0.00,WUHU216HW,2013-03-29 23:50:00,
2013-03-29 16:55:00,81.0,49.9,29.98,NW,321,2.1,5.4,34,0.00,,,0.00,WUHU216HW,2013-03-29 23:55:00,
2013-03-29 17:00:00,81.2,48.4,29.98,NW,321,1.7,4.3,32,0.00,,,0.00,WUHU216HW,2013-03-30 00:00:00,
2013-03-29 17:05:00,80.8,48.9,29.97,North,349,2.0,3.4,33,0.00,,,0.00,WUHU216HW,2013-03-30 00:05:00,
2013-03-29 17:10:00,80.8,49.7,29.97,NW,315,2.8,6.0,34,0.00,,,0.00,WUHU216HW,2013-03-30 00:10:00,
2013-03-29 17:15:00,80.6,49.5,29.97,NW,325,1.5,3.4,34,0.00,,,0.00,WUHU216HW,2013-03-30 00:15:00,
2013-03-29 17:20:00,80.5,50.1,29.97,NW,314,2.3,4.0,35,0.00,,,0.00,WUHU216HW,2013-03-30 00:20:00,
2013-03-29 17:25:00,80.3,49.2,29.97,NW,321,2.2,3.8,34,0.00,,,0.00,WUHU216HW,2013-03-30 00:25:00,
2013-03-29 17:30:00,80.3,48.4,29.97,NW,324,1.8,3.8,33,0.00,,,0.00,WUHU216HW,2013-03-30 00:30:00,
2013-03-29 17:35:00,80.3,47.7,29.97,NW,318,0.9,2.0,32,0.00,,,0.00,WUHU216HW,2013-03-30 00:35:00,
2013-03-29 17:40:00,80.5,47.8,29.97,NW,323,2.1,3.8,32,0.00,,,0.00,WUHU216HW,2013-03-30 00:40:00,
2013-03-29 17:45:00,80.5,47.1,29.97,NW,321,1.9,3.8,31,0.00,,,0.00,WUHU216HW,2013-03-30 00:45:00,
2013-03-29 17:50:00,80.3,48.4,29.97,NW,314,1.5,4.7,33,0.00,,,0.00,WUHU216HW,2013-03-30 00:50:00,
2013-03-29 17:55:00,79.9,48.2,29.97,NW,319,2.4,4.9,33,0.00,,,0.00,WUHU216HW,2013-03-30 00:55:00,
2013-03-29 18:00:00,79.6,47.8,29.97,NW,308,2.5,3.4,33,0.00,,,0.00,WUHU216HW,2013-03-30 01:00:00,
2013-03-29 18:05:00,79.2,48.2,29.97,NW,304,2.3,3.6,34,0.00,,,0.00,WUHU216HW,2013-03-30 01:05:00,
2013-03-29 18:10:00,79.2,49.1,29.98,WNW,291,2.4,3.6,35,0.00,,,0.00,WUHU216HW,2013-03-30 01:10:00,
2013-03-29 18:15:00,79.0,50.4,29.98,NW,305,2.7,3.6,37,0.00,,,0.00,WUHU216HW,2013-03-30 01:15:00,
2013-03-29 18:20:00,78.5,50.0,29.98,WNW,301,2.7,3.8,37,0.00,,,0.00,WUHU216HW,2013-03-30 01:20:00,
2013-03-29 18:25:00,78.1,50.4,29.98,NW,304,2.3,3.4,38,0.00,,,0.00,WUHU216HW,2013-03-30 01:25:00,
2013-03-29 18:30:00,77.8,50.0,29.98,NW,307,1.5,2.7,38,0.00,,,0.00,WUHU216HW,2013-03-30 01:30:00,
2013-03-29 18:35:00,77.6,50.7,29.98,WNW,289,1.8,2.9,39,0.00,,,0.00,WUHU216HW,2013-03-30 01:35:00,
2013-03-29 18:40:00,77.0,50.9,29.98,NW,315,1.2,1.8,40,0.00,,,0.00,WUHU216HW,2013-03-30 01:40:00,
2013-03-29 18:45:00,75.8,50.4,29.98,NW,315,1.5,1.8,41,0.00,,,0.00,WUHU216HW,2013-03-30 01:45:00,
2013-03-29 18:50:00,75.2,50.0,29.98,NW,315,1.0,1.1,41,0.00,,,0.00,WUHU216HW,2013-03-30 01:50:00,
2013-03-29 18:55:00,75.1,50.4,29.98,WNW,297,0.6,0.7,42,0.00,,,0.00,WUHU216HW,2013-03-30 01:55:00,
2013-03-29 19:00:00,74.2,50.1,29.98,WNW,293,0.5,0.7,43,0.00,,,0.00,WUHU216HW,2013-03-30 02:00:00,
2013-03-29 19:05:00,73.3,50.5,29.98,North,0,0.0,0.0,45,0.00,,,0.00,WUHU216HW,2013-03-30 02:05:00,
2013-03-29 19:10:00,72.5,50.5,29.98,NW,315,0.2,0.2,46,0.00,,,0.00,WUHU216HW,2013-03-30 02:10:00,
2013-03-29 19:15:00,71.8,51.0,29.98,North,0,0.0,0.0,48,0.00,,,0.00,WUHU216HW,2013-03-30 02:15:00,
2013-03-29 19:21:00,70.9,50.8,29.98,North,0,0.0,0.0,49,0.00,,,0.00,WUHU216HW,2013-03-30 02:21:00,
2013-03-29 19:26:00,70.0,51.0,29.98,NNW,338,0.4,0.4,51,0.00,,,0.00,WUHU216HW,2013-03-30 02:26:00,
2013-03-29 19:31:00,69.5,50.6,29.98,North,0,0.0,0.0,51,0.00,,,0.00,WUHU216HW,2013-03-30 02:31:00,
2013-03-29 19:36:00,69.1,50.2,29.98,North,0,0.0,0.0,51,0.00,,,0.00,WUHU216HW,2013-03-30 02:36:00,
2013-03-29 19:41:00,68.8,50.4,29.98,North,0,0.0,0.0,52,0.00,,,0.00,WUHU216HW,2013-03-30 02:41:00,
2013-03-29 19:46:00,68.8,50.4,29.98,North,0,0.0,0.0,52,0.00,,,0.00,WUHU216HW,2013-03-30 02:46:00,
2013-03-29 19:51:00,68.6,50.8,29.98,North,0,0.0,0.0,53,0.00,,,0.00,WUHU216HW,2013-03-30 02:51:00,
2013-03-29 19:56:00,67.9,50.6,29.98,North,0,0.0,0.0,54,0.00,,,0.00,WUHU216HW,2013-03-30 02:56:00,
2013-03-29 20:01:00,67.5,50.2,29.99,North,0,0.0,0.0,54,0.00,,,0.00,WUHU216HW,2013-03-30 03:01:00,
2013-03-29 20:06:00,67.3,50.6,29.99,North,0,0.0,0.0,55,0.00,,,0.00,WUHU216HW,2013-03-30 03:06:00,
2013-03-29 20:11:00,67.1,50.9,29.99,North,0,0.0,0.0,56,0.00,,,0.00,WUHU216HW,2013-03-30 03:11:00,
2013-03-29 20:16:00,66.8,50.6,29.99,North,0,0.0,0.0,56,0.00,,,0.00,WUHU216HW,2013-03-30 03:16:00,
2013-03-29 20:21:00,66.2,51.0,29.99,North,0,0.0,0.0,58,0.00,,,0.00,WUHU216HW,2013-03-30 03:21:00,
2013-03-29 20:26:00,65.5,50.9,29.99,North,0,0.0,0.0,59,0.00,,,0.00,WUHU216HW,2013-03-30 03:26:00,
2013-03-29 20:31:00,65.5,50.9,29.99,North,0,0.0,0.0,59,0.00,,,0.00,WUHU216HW,2013-03-30 03:31:00,
2013-03-29 20:36:00,65.2,50.9,29.99,North,0,0.0,0.0,60,0.00,,,0.00,WUHU216HW,2013-03-30 03:36:00,
2013-03-29 20:41:00,64.8,50.6,30.00,North,0,0.0,0.0,60,0.00,,,0.00,WUHU216HW,2013-03-30 03:41:00,
2013-03-29 20:46:00,64.6,50.9,30.00,North,0,0.0,0.0,61,0.00,,,0.00,WUHU216HW,2013-03-30 03:46:00,
2013-03-29 20:51:00,64.4,50.7,30.00,North,0,0.0,0.0,61,0.00,,,0.00,WUHU216HW,2013-03-30 03:51:00,
2013-03-29 20:56:00,64.3,51.0,30.00,North,0,0.0,0.0,62,0.00,,,0.00,WUHU216HW,2013-03-30 03:56:00,
2013-03-29 21:01:00,63.7,50.4,30.00,North,0,0.0,0.0,62,0.00,,,0.00,WUHU216HW,2013-03-30 04:01:00,
2013-03-29 21:06:00,63.5,50.7,30.00,North,0,0.0,0.0,63,0.00,,,0.00,WUHU216HW,2013-03-30 04:06:00,
2013-03-29 21:11:00,63.2,50.8,30.01,North,0,0.0,0.0,64,0.00,,,0.00,WUHU216HW,2013-03-30 04:11:00,
2013-03-29 21:16:00,62.6,50.7,30.01,North,0,0.0,0.0,65,0.00,,,0.00,WUHU216HW,2013-03-30 04:16:00,
2013-03-29 21:21:00,62.3,50.3,30.01,SE,125,0.3,0.4,65,0.00,,,0.00,WUHU216HW,2013-03-30 04:21:00,
2013-03-29 21:26:00,61.9,50.9,30.02,North,0,0.0,0.0,67,0.00,,,0.00,WUHU216HW,2013-03-30 04:26:00,
2013-03-29 21:31:00,61.4,50.4,30.02,North,0,0.0,0.0,67,0.00,,,0.00,WUHU216HW,2013-03-30 04:31:00,
2013-03-29 21:36:00,60.8,49.5,30.02,North,0,0.0,0.0,66,0.00,,,0.00,WUHU216HW,2013-03-30 04:36:00,
2013-03-29 21:41:00,60.8,49.9,30.02,North,0,0.0,0.0,67,0.00,,,0.00,WUHU216HW,2013-03-30 04:41:00,
2013-03-29 21:46:00,60.7,49.7,30.02,North,0,0.0,0.0,67,0.00,,,0.00,WUHU216HW,2013-03-30 04:46:00,
2013-03-29 21:51:00,60.3,49.8,30.02,North,0,0.0,0.0,68,0.00,,,0.00,WUHU216HW,2013-03-30 04:51:00,
2013-03-29 21:56:00,60.1,49.6,30.03,North,0,0.0,0.0,68,0.00,,,0.00,WUHU216HW,2013-03-30 04:56:00,
2013-03-29 22:01:00,59.6,49.9,30.03,North,0,0.0,0.0,70,0.00,,,0.00,WUHU216HW,2013-03-30 05:01:00,
2013-03-29 22:06:00,59.2,49.9,30.03,North,0,0.0,0.0,71,0.00,,,0.00,WUHU216HW,2013-03-30 05:06:00,
2013-03-29 22:11:00,59.2,49.9,30.03,North,0,0.0,0.0,71,0.00,,,0.00,WUHU216HW,2013-03-30 05:11:00,
2013-03-29 22:16:00,58.9,49.5,30.02,North,0,0.0,0.0,71,0.00,,,0.00,WUHU216HW,2013-03-30 05:16:00,
2013-03-29 22:21:00,58.9,50.2,30.02,North,0,0.0,0.0,73,0.00,,,0.00,WUHU216HW,2013-03-30 05:21:00,
2013-03-29 22:27:00,58.7,49.7,30.02,North,0,0.0,0.0,72,0.00,,,0.00,WUHU216HW,2013-03-30 05:27:00,
2013-03-29 22:32:00,58.7,49.3,30.02,North,0,0.0,0.0,71,0.00,,,0.00,WUHU216HW,2013-03-30 05:32:00,
2013-03-29 22:37:00,58.5,49.1,30.02,North,0,0.0,0.0,71,0.00,,,0.00,WUHU216HW,2013-03-30 05:37:00,
2013-03-29 22:42:00,58.1,48.8,30.02,North,0,0.0,0.0,71,0.00,,,0.00,WUHU216HW,2013-03-30 05:42:00,
2013-03-29 22:47:00,58.1,48.8,30.02,North,0,0.0,0.0,71,0.00,,,0.00,WUHU216HW,2013-03-30 05:47:00,
2013-03-29 22:52:00,58.0,48.6,30.02,North,0,0.0,0.0,71,0.00,,,0.00,WUHU216HW,2013-03-30 05:52:00,
2013-03-29 22:57:00,57.6,48.6,30.02,North,0,0.0,0.0,72,0.00,,,0.00,WUHU216HW,2013-03-30 05:57:00,
2013-03-29 23:02:00,57.2,48.2,30.02,North,0,0.0,0.0,72,0.00,,,0.00,WUHU216HW,2013-03-30 06:02:00,
2013-03-29 23:07:00,57.2,48.6,30.02,North,0,0.0,0.0,73,0.00,,,0.00,WUHU216HW,2013-03-30 06:07:00,
2013-03-29 23:12:00,56.9,48.2,30.02,North,0,0.0,0.0,73,0.00,,,0.00,WUHU216HW,2013-03-30 06:12:00,
2013-03-29 23:17:00,56.7,48.1,30.02,North,0,0.0,0.0,73,0.00,,,0.00,WUHU216HW,2013-03-30 06:17:00,
2013-03-29 23:22:00,56.7,48.4,30.02,NNW,328,0.4,0.4,74,0.00,,,0.00,WUHU216HW,2013-03-30 06:22:00,
2013-03-29 23:27:00,56.5,48.2,30.02,West,263,0.5,1.1,74,0.00,,,0.00,WUHU216HW,2013-03-30 06:27:00,
2013-03-29 23:32:00,56.7,48.4,30.02,WNW,282,0.5,0.9,74,0.00,,,0.00,WUHU216HW,2013-03-30 06:32:00,
2013-03-29 23:37:00,56.5,50.0,30.02,ENE,57,0.4,0.4,79,0.00,,,0.00,WUHU216HW,2013-03-30 06:37:00,
2013-03-29 23:42:00,56.3,49.9,30.03,NNW,337,0.3,0.4,79,0.00,,,0.00,WUHU216HW,2013-03-30 06:42:00,
2013-03-29 23:47:00,56.0,49.1,30.03,NNW,334,0.6,0.7,78,0.00,,,0.00,WUHU216HW,2013-03-30 06:47:00,
2013-03-29 23:52:00,56.0,48.8,30.03,WNW,293,0.8,1.1,77,0.00,,,0.00,WUHU216HW,2013-03-30 06:52:00,
2013-03-29 23:57:00,55.8,48.3,30.03,North,0,0.0,0.0,76,0.00,,,0.00,WUHU216HW,2013-03-30 06:57:00,